User: anonymous   Login
Location: Antioch Church
(34.9543°N, 88.5145°W)
Time: 08:16:07
(UTC+00:00)
Language:

SKYMED 2 - Orbit

View from above orbital plane
View from above orbital plane
View from above satellite
View from above satellite

Ground track
Ground track

The orbit data is extracted from the following two-line orbital elements,

1 32376U 07059A   20050.22048827  .00000271  00000-0  40639-4 0  9998
2 32376  97.8866 235.1033 0001372  86.9625 273.1724 14.82157252659916
Epoch (UTC): 19 February 2020 05:17:30
Eccentricity: 0.0001372
inclination: 97.8866°
perigee height: 621 km
apogee height: 623 km
right ascension of ascending node: 235.1033°
argument of perigee: 86.9625°
revolutions per day: 14.82157252
mean anomaly at epoch: 273.1724°
orbit number at epoch: 65991

The dashed part of the orbit path shows where the satellite is in the earth's shadow,  

DLR